Volver al catálogo

KUWAITSAT-1

ActivoCienciaSSO
NORAD 55103·PAYLOAD·🇰🇼 Kuwait

Lanzado Jan 3, 2023 desde Cape Canaveral Space Force Station

Loading…

Próximos Pases (próximas 24 horas)

TLE

ActualizadoSource: Space-Track

Época: Sep 14, 2026, 03:27 UTC

1 55103U 23001CY  26257.14430703  .00024177  00000-0  38293-3 0  9993
2 55103  97.3159 329.5484 0009385 104.7531 255.4763 15.53366268206387

Sigue KUWAITSAT-1 en tiempo real con AllMySat

Download on the App Store